KO4LFZ Weather Reports


Display with metric or nautical units.
time (UTC)temp
F
wind
direction
speed
MPH
gust
MPH
rain 1hr
in
rain 24hr
in
rain mn
in
humidity
%
barometer
mb
20260903030417 82 232 0.0 0.0 0.00 0.00 0.00 80 1015.8
20260903025912 82 226 0.0 0.0 0.00 0.00 0.00 80 1015.9
20260903025408 82 229 0.0 0.0 0.00 0.00 0.00 80 1015.5
20260903024903 83 224 0.0 0.0 0.00 0.00 0.00 79 1015.6
20260903024401 83 229 0.0 0.0 0.00 0.00 0.00 79 1015.7
20260903023856 83 227 0.0 0.0 0.00 0.00 0.00 78 1015.5
20260903023352 83 230 0.0 0.0 0.00 0.00 0.00 78 1015.7
20260903022847 83 282 0.0 0.0 0.00 0.00 0.00 78 1015.6
20260903022346 83 230 0.0 0.0 0.00 0.00 0.00 78 1015.6
20260903021845 84 222 0.0 0.0 0.00 0.00 0.00 78 1015.7
20260903021341 84 221 0.0 0.0 0.00 0.00 0.00 77 1015.6
20260903020841 84 215 0.0 0.0 0.00 0.00 0.00 77 1015.5
20260903020337 84 225 0.0 0.0 0.00 0.00 0.00 76 1015.5
20260903015837 84 222 0.0 0.0 0.00 0.00 0.00 76 1015.3
20260903015332 85 217 0.0 0.0 0.00 0.00 0.00 75 1015.2
20260903014827 85 270 0.0 0.0 0.00 0.00 0.00 75 1015.2
20260903014321 85 213 0.0 0.0 0.00 0.00 0.00 75 1015.2
20260903013817 85 228 0.0 0.0 0.00 0.00 0.00 75 1015.1
20260903013315 85 227 0.0 0.0 0.00 0.00 0.00 75 1015.0
20260903012815 85 231 0.0 0.0 0.00 0.00 0.00 74 1015.3
20260903012310 84 218 0.0 0.0 0.00 0.00 0.00 75 1015.0
20260903011809 84 193 0.0 0.0 0.00 0.00 0.00 75 1015.0
20260903011303 85 233 0.0 0.0 0.00 0.00 0.00 74 1015.0
20260903010758 85 228 0.0 0.0 0.00 0.00 0.00 73 1015.1
20260903010254 86 221 0.0 0.0 0.00 0.00 0.00 72 1015.0
20260903005752 86 207 0.0 0.0 0.00 0.00 0.00 71 1014.8
20260903005247 86 228 0.0 0.0 0.00 0.00 0.00 70 1015.0
20260903004743 87 227 0.0 0.0 0.00 0.00 0.00 69 1014.9
20260903004238 87 225 0.0 0.0 0.00 0.00 0.00 69 1014.8
20260903003734 87 226 0.0 0.0 0.00 0.00 0.00 69 1015.0
20260903003229 88 221 0.0 0.0 0.00 0.00 0.00 68 1015.0
20260903002723 88 174 0.0 0.0 0.00 0.00 0.00 67 1014.9
20260903002218 89 228 0.0 0.0 0.00 0.00 0.00 66 1014.8
20260903001713 89 208 0.0 0.0 0.00 0.00 0.00 65 1015.0
20260903001206 90 216 0.0 0.0 0.00 0.00 0.00 65 1014.9
20260903000703 91 165 0.0 0.0 0.00 0.00 0.00 63 1014.8
20260903000204 91 208 0.0 0.0 0.00 0.00 0.00 62 1015.2
20260902235700 92 207 0.0 0.0 0.00 0.00 0.00 62 1015.0
20260902235156 93 166 0.0 0.0 0.00 0.00 0.00 61 1015.0
20260902234655 93 211 0.0 0.0 0.00 0.00 0.00 60 1015.2
20260902234154 93 145 0.0 0.0 0.00 0.00 0.00 59 1015.2
20260902233649 94 72 0.0 0.0 0.00 0.00 0.00 59 1015.2
20260902233149 94 207 0.0 0.0 0.00 0.00 0.00 59 1015.1
20260902232643 94 209 0.0 0.0 0.00 0.00 0.00 57 1015.1
20260902232141 95 153 0.0 0.0 0.00 0.00 0.00 57 1015.1
20260902231636 95 226 0.0 0.0 0.00 0.00 0.00 57 1015.4
20260902231130 95 104 0.0 0.0 0.00 0.00 0.00 56 1015.3
20260902230625 96 159 0.0 0.0 0.00 0.00 0.00 56 1015.3
20260902230124 96 227 0.0 0.0 0.00 0.00 0.00 53 1015.2
20260902225619 97 233 0.0 0.0 0.00 0.00 0.00 54 1015.0
20260902225119 96 46 0.0 0.0 0.00 0.00 0.00 54 1015.0
20260902224618 95 192 0.0 0.0 0.00 0.00 0.00 57 1015.1
20260902224114 94 137 0.0 0.0 0.00 0.00 0.00 56 1015.1
20260902223610 94 207 0.0 0.0 0.00 0.00 0.00 56 1015.3
20260902223109 95 290 0.0 0.0 0.00 0.00 0.00 55 1015.2
20260902222608 96 205 0.0 0.0 0.00 0.00 0.00 54 1015.1
20260902222106 97 46 0.0 0.0 0.00 0.00 0.00 53 1015.4
20260902221601 98 332 0.0 0.0 0.00 0.00 0.00 52 1015.2
20260902221056 98 222 0.0 0.0 0.00 0.00 0.00 52 1015.1
20260902220552 98 85 0.0 0.0 0.00 0.00 0.00 54 1015.2
20260902220046 98 286 0.0 0.0 0.00 0.00 0.00 53 1015.2
20260902215542 99 354 0.0 0.0 0.00 0.00 0.00 51 1015.1
20260902215037 99 216 0.0 0.0 0.00 0.00 0.00 49 1015.3
20260902214532 98 250 0.0 0.0 0.00 0.00 0.00 48 1015.0
20260902214031 97 224 0.0 0.0 0.00 0.00 0.00 52 1015.0
20260902213527 96 83 0.0 1.0 0.00 0.00 0.00 53 1015.3
20260902213026 96 166 0.0 0.0 0.00 0.00 0.00 56 1015.3
20260902212522 95 216 0.0 0.0 0.00 0.00 0.00 54 1015.4
20260902212018 95 218 0.0 0.0 0.00 0.00 0.00 55 1015.3
20260902211514 95 69 0.0 0.0 0.00 0.00 0.00 55 1015.5
20260902211009 95 54 0.0 0.0 0.00 0.00 0.00 55 1015.4
20260902210509 95 173 0.0 0.0 0.00 0.00 0.00 55 1015.6
20260902210008 95 54 0.0 0.0 0.00 0.00 0.00 54 1015.5
20260902205502 96 229 0.0 0.0 0.00 0.00 0.00 54 1015.6
20260902204958 97 195 0.0 0.0 0.00 0.00 0.00 52 1015.9
20260902204457 99 215 0.0 0.0 0.00 0.00 0.00 54 1015.6
20260902203953 100 205 0.0 0.0 0.00 0.00 0.00 46 1015.8
20260902203448 99 224 0.0 0.0 0.00 0.00 0.00 48 1015.6
20260902202947 99 236 0.0 0.0 0.00 0.00 0.00 48 1015.9
20260902202443 100 174 0.0 0.0 0.00 0.00 0.00 47 1015.7
20260902201940 98 217 0.0 0.0 0.00 0.00 0.00 51 1016.0
20260902201435 97 187 0.0 0.0 0.00 0.00 0.00 51 1016.1
20260902200934 97 240 0.0 0.0 0.00 0.00 0.00 53 1015.9
20260902200430 95 229 0.0 0.0 0.00 0.00 0.00 56 1016.0
20260902195925 95 221 0.0 0.0 0.00 0.00 0.00 53 1016.3
20260902195420 95 214 0.0 0.0 0.00 0.00 0.00 53 1016.2
20260902194915 96 227 0.0 0.0 0.00 0.00 0.00 56 1016.4
20260902194414 97 210 0.0 0.0 0.00 0.00 0.00 52 1016.4
20260902193909 97 225 0.0 0.0 0.00 0.00 0.00 55 1016.3
20260902193405 98 247 0.0 0.0 0.00 0.00 0.00 51 1016.6
20260902192903 98 228 0.0 0.0 0.00 0.00 0.00 51 1016.6
20260902192402 97 221 0.0 0.0 0.00 0.00 0.00 56 1016.7
20260902191856 98 242 0.0 0.0 0.00 0.00 0.00 58 1016.8
20260902191352 98 230 0.0 0.0 0.00 0.00 0.00 52 1017.0
20260902190842 98 235 0.0 0.0 0.00 0.00 0.00 53 1016.8
20260902190341 98 257 0.0 0.0 0.00 0.00 0.00 50 1017.0
20260902185838 97 240 0.0 0.0 0.00 0.00 0.00 52 1016.9
20260902185332 95 231 0.0 0.0 0.00 0.00 0.00 56 1016.9
20260902184828 96 243 0.0 0.0 0.00 0.00 0.00 55 1017.0
20260902184324 95 239 0.0 0.0 0.00 0.00 0.00 56 1017.2
20260902183819 94 213 0.0 0.0 0.00 0.00 0.00 56 1017.2
20260902183315 94 223 0.0 0.0 0.00 0.00 0.00 57 1017.1
20260902182811 95 232 0.0 0.0 0.00 0.00 0.00 55 1017.1
20260902182307 97 234 0.0 2.0 0.00 0.00 0.00 53 1017.1
20260902181803 97 238 0.0 0.0 0.00 0.00 0.00 53 1017.3
20260902181303 97 173 0.0 0.0 0.00 0.00 0.00 52 1017.3
20260902180758 96 58 0.0 0.0 0.00 0.00 0.00 55 1017.2
20260902180253 96 59 0.0 0.0 0.00 0.00 0.00 52 1017.3
20260902175748 96 340 0.0 0.0 0.00 0.00 0.00 55 1017.3
20260902175244 95 242 0.0 0.0 0.00 0.00 0.00 58 1017.6
20260902174739 96 257 0.0 0.0 0.00 0.00 0.00 55 1017.6
20260902174236 97 233 0.0 0.0 0.00 0.00 0.00 56 1017.6
20260902173731 97 216 0.0 0.0 0.00 0.00 0.00 51 1017.7
20260902173226 96 231 0.0 0.0 0.00 0.00 0.00 58 1017.6
20260902172720 95 282 0.0 0.0 0.00 0.00 0.00 60 1017.6
20260902172220 95 308 0.0 0.0 0.00 0.00 0.00 60 1017.7
20260902171715 95 220 0.0 0.0 0.00 0.00 0.00 58 1017.9
20260902171210 95 281 0.0 0.0 0.00 0.00 0.00 56 1017.9
20260902170707 95 263 0.0 0.0 0.00 0.00 0.00 60 1017.8
20260902170202 95 232 0.0 0.0 0.00 0.00 0.00 62 1018.2
20260902165702 95 252 0.0 0.0 0.00 0.00 0.00 62 1018.1
20260902165156 95 240 0.0 0.0 0.00 0.00 0.00 61 1018.1
20260902164652 94 268 0.0 0.0 0.00 0.00 0.00 63 1017.9
20260902164151 95 270 0.0 0.0 0.00 0.00 0.00 64 1018.2
20260902163646 94 251 0.0 0.0 0.00 0.00 0.00 60 1018.2
20260902163146 93 263 0.0 0.0 0.00 0.00 0.00 60 1018.3
20260902162644 93 224 0.0 0.0 0.00 0.00 0.00 64 1018.2
20260902162139 94 262 0.0 0.0 0.00 0.00 0.00 63 1018.5
20260902161634 93 227 0.0 0.0 0.00 0.00 0.00 62 1018.4
20260902161130 93 256 0.0 0.0 0.00 0.00 0.00 63 1018.6
20260902160626 93 262 0.0 0.0 0.00 0.00 0.00 63 1018.6
20260902160121 92 273 0.0 0.0 0.00 0.00 0.00 65 1018.3
20260902155619 92 214 0.0 0.0 0.00 0.00 0.00 62 1018.6
20260902155118 93 242 0.0 0.0 0.00 0.00 0.00 64 1018.8
20260902154613 93 240 0.0 0.0 0.00 0.00 0.00 64 1018.6
20260902154108 93 228 0.0 0.0 0.00 0.00 0.00 61 1019.1
20260902153607 93 271 0.0 0.0 0.00 0.00 0.00 61 1018.9
20260902153102 92 228 0.0 0.0 0.00 0.00 0.00 63 1019.0
20260902152559 92 216 0.0 0.0 0.00 0.00 0.00 65 1018.8
20260902152054 92 231 0.0 0.0 0.00 0.00 0.00 63 1018.6
20260902151550 92 227 0.0 0.0 0.00 0.00 0.00 68 1019.0
20260902151049 92 231 0.0 0.0 0.00 0.00 0.00 66 1018.9
20260902150544 92 263 0.0 0.0 0.00 0.00 0.00 67 1018.8
20260902150039 91 205 0.0 0.0 0.00 0.00 0.00 66 1018.8
20260902145529 91 231 0.0 0.0 0.00 0.00 0.00 69 1018.8
20260902145028 90 227 0.0 0.0 0.00 0.00 0.00 69 1018.8
20260902144526 90 229 0.0 0.0 0.00 0.00 0.00 70 1018.9
20260902144025 89 231 0.0 0.0 0.00 0.00 0.00 72 1018.4
20260902143520 88 213 0.0 0.0 0.00 0.00 0.00 71 1018.6
20260902143016 88 215 0.0 0.0 0.00 0.00 0.00 72 1018.5
20260902142512 87 210 0.0 0.0 0.00 0.00 0.00 71 1018.6
20260902142007 87 197 0.0 0.0 0.00 0.00 0.00 72 1018.8
20260902141501 86 208 0.0 0.0 0.00 0.00 0.00 74 1018.6
20260902140956 86 191 0.0 0.0 0.00 0.00 0.00 73 1018.6
20260902140451 86 207 0.0 0.0 0.00 0.00 0.00 75 1018.8
20260902135950 85 213 0.0 0.0 0.00 0.00 0.00 74 1018.6
20260902135446 85 171 0.0 0.0 0.00 0.00 0.00 74 1019.0
20260902134945 85 195 0.0 0.0 0.00 0.00 0.00 75 1018.6
20260902134441 84 199 0.0 0.0 0.00 0.00 0.00 77 1018.6
20260902133936 84 215 0.0 0.0 0.00 0.00 0.00 80 1019.0
20260902133431 83 190 0.0 0.0 0.00 0.00 0.00 80 1018.6
20260902132926 83 209 0.0 0.0 0.00 0.00 0.00 79 1018.6
20260902132421 82 205 0.0 0.0 0.00 0.00 0.00 81 1018.6
20260902131916 82 208 0.0 0.0 0.00 0.00 0.00 82 1018.5
20260902131413 81 199 0.0 0.0 0.00 0.00 0.00 83 1018.6
20260902130912 80 201 0.0 0.0 0.00 0.00 0.00 84 1018.9
20260902130408 80 190 0.0 0.0 0.00 0.00 0.00 84 1018.6
20260902125903 80 188 0.0 0.0 0.00 0.00 0.00 86 1018.5
20260902125359 79 225 0.0 0.0 0.00 0.00 0.00 87 1018.5
20260902124855 79 197 0.0 0.0 0.00 0.00 0.00 89 1018.5
20260902124350 78 216 0.0 0.0 0.00 0.00 0.00 90 1018.6
20260902123845 78 229 0.0 0.0 0.00 0.00 0.00 91 1018.4
20260902123342 77 212 0.0 0.0 0.00 0.00 0.00 92 1018.3
20260902122840 76 218 0.0 0.0 0.00 0.00 0.00 95 1018.2
20260902122336 75 216 0.0 0.0 0.00 0.00 0.00 97 1018.3
20260902121836 75 226 0.0 0.0 0.00 0.00 0.00 99 1018.2
20260902121331 74 233 0.0 0.0 0.00 0.00 0.00 99 1018.3
20260902120826 74 227 0.0 0.0 0.00 0.00 0.00 99 1018.0
20260902120323 73 229 0.0 0.0 0.00 0.00 0.00 99 1017.9
20260902115817 73 234 0.0 0.0 0.00 0.00 0.00 99 1017.8
20260902115314 72 226 0.0 0.0 0.00 0.00 0.00 99 1017.9
20260902114810 72 227 0.0 0.0 0.00 0.00 0.00 99 1018.2
20260902114305 72 230 0.0 0.0 0.00 0.00 0.00 99 1017.8
20260902113800 72 225 0.0 0.0 0.00 0.00 0.00 99 1017.8
20260902113255 72 228 0.0 0.0 0.00 0.00 0.00 99 1017.8
20260902112754 72 231 0.0 0.0 0.00 0.00 0.00 99 1017.7
20260902112252 72 232 0.0 0.0 0.00 0.00 0.00 99 1017.9
20260902111746 72 229 0.0 0.0 0.00 0.00 0.00 99 1017.9
20260902111243 72 230 0.0 0.0 0.00 0.00 0.00 98 1018.0
20260902110738 72 231 0.0 0.0 0.00 0.00 0.00 98 1017.6
20260902110234 72 230 0.0 0.0 0.00 0.00 0.00 99 1017.5
20260902105734 72 227 0.0 0.0 0.00 0.00 0.00 99 1017.5
20260902105229 73 229 0.0 0.0 0.00 0.00 0.00 98 1017.2
20260902104724 73 230 0.0 0.0 0.00 0.00 0.00 98 1017.6
20260902104221 73 227 0.0 0.0 0.00 0.00 0.00 99 1017.4
20260902103720 73 228 0.0 0.0 0.00 0.00 0.00 98 1017.3
20260902103219 73 210 0.0 0.0 0.00 0.00 0.00 99 1017.2
20260902102715 73 171 0.0 0.0 0.00 0.00 0.00 98 1017.3
20260902102213 73 213 0.0 0.0 0.00 0.00 0.00 98 1017.3
20260902101708 73 226 0.0 0.0 0.00 0.00 0.00 98 1017.0
20260902101202 73 223 0.0 0.0 0.00 0.00 0.00 98 1017.3
20260902100656 73 229 0.0 0.0 0.00 0.00 0.00 97 1017.4
20260902100151 74 227 0.0 0.0 0.00 0.00 0.00 98 1017.3
20260902095650 74 210 0.0 0.0 0.00 0.00 0.00 97 1017.3
20260902095144 74 221 0.0 0.0 0.00 0.00 0.00 97 1017.2
20260902094639 74 228 0.0 0.0 0.00 0.00 0.00 97 1017.2
20260902094136 74 214 0.0 0.0 0.00 0.00 0.00 97 1017.1
20260902093635 74 196 0.0 0.0 0.00 0.00 0.00 97 1017.0
20260902093130 74 201 0.0 0.0 0.00 0.00 0.00 97 1017.2
20260902092624 74 191 0.0 0.0 0.00 0.00 0.00 97 1017.2
20260902092119 75 193 0.0 0.0 0.00 0.00 0.00 96 1017.1
20260902091614 75 195 0.0 0.0 0.00 0.00 0.00 96 1017.1
20260902091105 74 187 0.0 0.0 0.00 0.00 0.00 97 1017.1
20260902090601 74 228 0.0 0.0 0.00 0.00 0.00 96 1016.9
20260902090059 74 212 0.0 0.0 0.00 0.00 0.00 97 1016.8
20260902085049 75 191 0.0 0.0 0.00 0.00 0.00 96 1017.0
20260902084545 75 209 0.0 0.0 0.00 0.00 0.00 96 1016.9
20260902082022 76 214 0.0 0.0 0.00 0.00 0.00 94 1017.0
20260902081519 76 220 0.0 0.0 0.00 0.00 0.00 94 1017.0
20260902081018 75 198 0.0 0.0 0.00 0.00 0.00 94 1017.1
20260902080514 75 218 0.0 0.0 0.00 0.00 0.00 95 1016.9
20260902080010 75 215 0.0 0.0 0.00 0.00 0.00 95 1016.8
20260902075505 75 199 0.0 0.0 0.00 0.00 0.00 95 1017.0
20260902075000 75 219 0.0 0.0 0.00 0.00 0.00 95 1017.0
20260902074455 75 226 0.0 0.0 0.00 0.00 0.00 95 1017.0
20260902073950 75 218 0.0 0.0 0.00 0.00 0.00 95 1017.1
20260902073446 75 216 0.0 0.0 0.00 0.00 0.00 95 1016.8
20260902072942 75 236 0.0 0.0 0.00 0.00 0.00 94 1017.2
20260902072438 75 233 0.0 0.0 0.00 0.00 0.00 94 1017.1
20260902071934 75 224 0.0 0.0 0.00 0.00 0.00 94 1017.0
20260902071433 75 225 0.0 0.0 0.00 0.00 0.00 93 1016.9
20260902070930 75 230 0.0 0.0 0.00 0.00 0.00 92 1017.0
20260902070425 75 227 0.0 0.0 0.00 0.00 0.00 91 1016.9
20260902065924 76 230 0.0 0.0 0.00 0.00 0.00 90 1017.0
20260902065419 77 225 0.0 0.0 0.00 0.00 0.00 91 1017.0
20260902064914 77 225 0.0 0.0 0.00 0.00 0.00 91 1017.2
20260902064410 77 222 0.0 0.0 0.00 0.00 0.00 91 1017.0
20260902063906 77 223 0.0 0.0 0.00 0.00 0.00 90 1016.9
20260902063405 77 227 0.0 0.0 0.00 0.00 0.00 90 1017.1
20260902062901 77 221 0.0 0.0 0.00 0.00 0.00 90 1017.1
20260902062400 77 226 0.0 0.0 0.00 0.00 0.00 90 1016.8
20260902061859 77 224 0.0 0.0 0.00 0.00 0.00 89 1016.9
20260902061355 78 231 0.0 0.0 0.00 0.00 0.00 87 1016.8
20260902060851 79 227 0.0 0.0 0.00 0.00 0.00 86 1016.7
20260902060346 79 218 0.0 0.0 0.00 0.00 0.00 86 1016.9
20260902055842 79 219 0.0 0.0 0.00 0.00 0.00 86 1016.9
20260902055338 79 218 0.0 0.0 0.00 0.00 0.00 86 1016.9
20260902054833 79 217 0.0 0.0 0.00 0.00 0.00 86 1016.9
20260902054329 79 209 0.0 0.0 0.00 0.00 0.00 85 1016.9
20260902053824 80 220 0.0 0.0 0.00 0.00 0.00 85 1016.8
20260902053319 80 206 0.0 0.0 0.00 0.00 0.00 85 1017.0
20260902052818 80 211 0.0 0.0 0.00 0.00 0.00 85 1016.9
20260902052314 80 217 0.0 0.0 0.00 0.00 0.00 85 1016.8
20260902051808 80 192 0.0 0.0 0.00 0.00 0.00 85 1016.7
20260902051301 79 213 0.0 0.0 0.00 0.00 0.00 86 1016.7
20260902050756 79 211 0.0 0.0 0.00 0.00 0.00 86 1016.5
20260902050251 79 228 0.0 0.0 0.00 0.00 0.00 87 1016.8
20260902045751 79 228 0.0 0.0 0.00 0.00 0.00 86 1016.6
20260902045247 79 230 0.0 0.0 0.00 0.00 0.00 85 1016.6
20260902044743 80 227 0.0 0.0 0.00 0.00 0.00 85 1016.6
20260902044238 80 228 0.0 0.0 0.00 0.00 0.00 84 1016.3
20260902043733 80 229 0.0 0.0 0.00 0.00 0.00 84 1016.5
20260902043229 80 230 0.0 0.0 0.00 0.00 0.00 84 1016.4
20260902042728 80 229 0.0 0.0 0.00 0.00 0.00 84 1016.5
20260902042223 81 226 0.0 0.0 0.00 0.00 0.00 84 1016.6
20260902041718 81 229 0.0 0.0 0.00 0.00 0.00 83 1016.7
20260902041213 81 222 0.0 0.0 0.00 0.00 0.00 83 1016.7
20260902040712 82 228 0.0 0.0 0.00 0.00 0.00 83 1016.5
20260902040208 82 191 0.0 0.0 0.00 0.00 0.00 82 1016.8
20260902035706 82 185 0.0 0.0 0.00 0.00 0.00 82 1016.7
20260902035202 82 206 0.0 0.0 0.00 0.00 0.00 81 1016.6
20260902034700 83 221 0.0 0.0 0.00 0.00 0.00 81 1016.4
20260902034200 83 193 0.0 0.0 0.00 0.00 0.00 80 1016.5
20260902033659 83 208 0.0 0.0 0.00 0.00 0.00 80 1016.6
20260902033154 82 195 0.0 0.0 0.00 0.00 0.00 81 1016.4
20260902032652 82 231 0.0 0.0 0.00 0.00 0.00 81 1016.5
20260902032147 82 223 0.0 0.0 0.00 0.00 0.00 81 1016.5
20260902031642 82 222 0.0 0.0 0.00 0.00 0.00 81 1016.7
20260902031138 82 218 0.0 0.0 0.00 0.00 0.00 81 1016.7